[[{"header":{"parameterUnit":"m.s-1","parameterCategory":1,"la1":30.2991,"la2":30.254,"lo1":-89.0895,"lo2":-89.0444,"dx":0.0017,"dy":0.0017,"nx":28,"ny":28,"refTime":"2022-12-13T15:00:00:Z","depth":0,"parameterNumber":2,"parameterNumberName":"U-component_of_WINDS"},"data":[0,0,0,0,0,0,0,0,0,0,0,0,0,0,0,0,0,0,0,0,0,0,0,0,0,0,0,0,0,0,0,0,0,0,0,0,0,0,0,0,0,0,0,0,0,0,0,0,0,0,0,0,0,0,0,0,0,0,-7.4682,-7.4684,0,-7.4877,-7.488,-7.4882,-7.4892,-7.4889,-7.4887,-7.4885,-7.5079,-7.5086,-7.5093,0,0,0,0,0,0,0,0,0,0,0,0,0,-7.4313,-7.432,-7.4682,-7.4684,-7.4687,-7.4877,-7.488,-7.4882,-7.4892,-7.4889,-7.4887,-7.4884,-7.5076,-7.5085,-7.5094,0,0,0,0,0,0,0,0,0,0,0,0,0,-7.4487,-7.4322,-7.4682,-7.4715,-7.472,-7.4876,-7.488,-7.4883,-7.4893,-7.4889,-7.4886,-7.4883,-7.5074,-7.5084,-7.5095,-7.523,0,0,-7.5128,-7.5133,0,0,0,0,0,0,0,0,-7.4477,-7.4501,-7.4708,-7.4713,-7.4719,-7.4857,-7.4821,-7.4999,-7.4894,-7.4827,-7.4885,-7.4881,-7.5007,-7.5023,-7.5067,-7.5239,-7.5247,-7.5129,-7.5136,-7.514,-7.5143,0,0,0,0,0,0,0,-7.4465,-7.4492,-7.4759,-7.4711,-7.4717,-7.4719,-7.474,-7.4855,-7.4933,-7.4832,-7.4834,-7.4857,-7.501,-7.5057,-7.5072,-7.525,-7.5129,-7.5138,-7.5145,-7.5149,-7.5542,-7.5545,0,0,0,0,0,0,-7.4448,-7.4482,-7.4753,-7.4765,-7.4588,-7.4728,-7.4752,-7.4816,-7.4932,-7.4947,-7.486,-7.4857,-7.504,-7.5059,-7.5079,-7.5243,-7.514,-7.515,-7.5157,-7.5538,-7.5542,-7.5547,0,0,0,0,0,0,-7.444,-7.4472,-7.4745,-7.4624,-7.4659,-7.4738,-7.481,-7.4821,-7.4868,-7.4953,-7.4966,-7.4893,-7.5038,-7.5063,-7.5192,-7.525,-7.5155,-7.5165,-7.5533,-7.5539,-7.5545,-7.5573,0,0,0,0,0,0,-7.4429,-7.4469,-7.4521,-7.4625,-7.4666,-7.4857,-7.4814,-7.4828,-7.4888,-7.4886,-7.4988,-7.5002,-7.5037,-7.5176,-7.5203,-7.5263,-7.5174,-7.5528,-7.5536,-7.5543,-7.5567,-7.5579,-7.5589,0,0,0,0,0,-7.4416,-7.452,-7.4524,-7.4556,-7.4733,-7.486,-7.4883,-7.4923,-7.4893,-7.4945,-7.5,-7.4999,-7.524,-7.5189,-7.522,-7.5284,-7.5525,-7.5534,-7.5542,-7.5562,-7.5576,-7.5589,0,0,0,0,0,0,-7.4417,-7.4534,-7.454,-7.4681,-7.4761,-7.4861,-7.4929,-7.4937,-7.5025,-7.5019,-7.5064,-7.5087,-7.5215,-7.5263,-7.5204,-7.542,-7.5379,-7.5394,-7.5383,-7.5398,-7.5409,-7.5392,-7.5183,0,0,0,0,0,-7.4435,-7.453,-7.4626,-7.4742,-7.4782,-7.4849,-7.4905,-7.493,-7.5013,-7.5046,-7.511,-7.519,-7.5284,-7.5344,-7.5435,-7.5576,-7.5597,-7.5635,-7.5646,-7.5655,-7.5666,-7.5743,-7.576,-7.5575,-7.5575,-7.5575,0,0,-7.447,-7.4546,-7.4603,-7.4744,-7.4808,-7.4904,-7.4877,-7.4979,-7.5049,-7.5061,-7.5187,-7.5237,-7.5329,-7.5464,-7.5527,-7.5508,-7.5723,-7.5666,-7.5672,-7.5679,-7.5754,-7.5771,-7.5786,-7.5581,-7.558,-7.5579,0,0,-7.4583,-7.4652,-7.4755,-7.4821,-7.4921,-7.4965,-7.499,-7.5091,-7.5125,-7.5253,-7.5264,-7.5349,-7.551,-7.5575,-7.5629,-7.5771,-7.5772,-7.58,-7.5855,-7.593,-7.5944,-7.5957,-7.6005,-7.6022,-7.5812,-7.5812,-7.5812,0,-7.4614,-7.476,-7.4806,-7.4909,-7.497,-7.499,-7.5093,-7.5155,-7.5278,-7.5319,-7.5298,-7.5502,-7.5565,-7.5715,-7.575,-7.5794,-7.5822,-7.5785,-7.5939,-7.5952,-7.5965,-7.6011,-7.603,-7.5814,-7.5814,-7.5814,-7.5813,0,-7.4791,-7.4893,-7.4964,-7.5085,-7.5155,-7.5258,-7.5319,-7.5384,-7.5404,-7.5451,-7.558,-7.5658,-7.5765,-7.5804,-7.5823,-7.5957,-7.5942,-7.593,-7.5888,-7.5984,-7.6028,-7.6047,-7.5818,-7.5817,-7.5816,-7.5815,0,0,-7.4905,-7.5054,-7.5079,-7.5135,-7.5248,-7.5326,-7.5431,-7.5538,-7.5592,-7.5678,-7.5764,-7.5902,-7.5892,-7.5953,-7.5981,-7.6047,-7.6152,-7.6027,-7.6029,-7.6044,-7.6302,-7.6308,-7.6328,-7.6156,-7.616,-7.6163,-7.6294,0,-7.5028,-7.5215,-7.5261,-7.542,-7.5513,-7.5535,-7.5626,-7.5704,-7.5752,-7.5837,-7.5889,-7.5985,-7.5966,-7.6003,-7.607,-7.6125,-7.6204,-7.6117,-7.6234,-7.6238,-7.6206,-7.6351,-7.6358,-7.6477,-7.6311,-7.6314,-7.6317,0,-7.5194,-7.5286,-7.5455,-7.5558,-7.5598,-7.5679,-7.5781,-7.5864,-7.5954,-7.5984,-7.6054,-7.6077,-7.6184,-7.6142,-7.629,-7.623,-7.6281,-7.6316,-7.6322,-7.633,-7.6279,-7.636,-7.6516,-7.6532,-7.6345,-7.6343,-7.634,0,-7.5256,-7.5423,-7.5545,-7.5593,-7.5716,-7.5772,-7.5826,-7.5913,-7.5975,-7.6065,-7.6105,-7.6206,-7.626,-7.6337,-7.6385,-7.635,-7.6529,-7.649,-7.6554,-7.6553,-7.6586,-7.6583,-7.6749,-7.6627,-7.6627,-7.6626,-7.6626,0,-7.5386,-7.5487,-7.5575,-7.565,-7.5764,-7.5818,-7.5929,-7.5983,-7.6061,-7.6145,-7.6172,-7.625,-7.6311,-7.6398,-7.6437,-7.6552,-7.6578,-7.6603,-7.6611,-7.6598,-7.6594,-7.6629,-7.662,-7.6631,-7.663,-7.6629,-7.6628,0,-7.5472,-7.5535,-7.567,-7.5778,-7.5807,-7.5886,-7.5977,-7.605,-7.6101,-7.6207,-7.6236,-7.6313,-7.6417,-7.6475,-7.6604,-7.6631,-7.6759,-7.6765,-7.6728,-7.6731,-7.6791,-7.6783,-7.6981,-7.7009,-7.6872,-7.6873,-7.6874,0,-7.5548,-7.5627,-7.5744,-7.5804,-7.586,-7.5955,-7.602,-7.6077,-7.6142,-7.6252,-7.6311,-7.6418,-7.6505,-7.6669,-7.6736,-7.6836,-7.6842,-7.6905,-7.6856,-7.6841,-7.6839,-7.6832,-7.6839,-7.6911,-7.6912,-7.6913,-7.6914,0,-7.5675,-7.5704,-7.5796,-7.5902,-7.5979,-7.6063,-7.6147,-7.6194,-7.6264,-7.6337,-7.6445,-7.6513,-7.6647,-7.6751,-7.6857,-7.691,-7.6923,-7.693,-7.6949,-7.6934,-7.6909,-7.692,-7.6747,-7.6924,-7.6923,-7.6922,-7.6921,-7.6921,-7.5756,-7.5827,-7.5922,-7.6025,-7.6095,-7.6173,-7.6247,-7.6309,-7.64,-7.6515,-7.6543,-7.6656,-7.6745,-7.6889,-7.6946,-7.7034,-7.7022,-7.7051,-7.7057,-7.7063,-7.7063,-7.6899,-7.7054,-7.7054,-7.7054,-7.7054,-7.7054,0,-7.5882,-7.5945,-7.604,-7.6157,-7.6239,-7.6249,-7.6343,-7.6409,-7.6509,-7.6593,-7.6679,-7.6803,-7.6905,-7.6982,-7.7086,-7.7142,-7.715,-7.7167,-7.7161,-7.7173,-7.707,-7.7041,-7.7158,-7.7158,-7.7158,-7.7158,-7.7158,-7.7158,-7.5956,-7.6077,-7.6117,-7.6273,-7.6335,-7.6448,-7.65,-7.6573,-7.664,-7.6778,-7.6864,-7.6915,-7.6996,-7.7106,-7.72,-7.722,-7.7255,-7.727,-7.729,-7.7191,-7.718,-7.7169,-7.7142,-7.7279,-7.7279,-7.7386,-7.7387,-7.7388]},{"header":{"parameterUnit":"m.s-1","parameterCategory":1,"la1":30.2991,"la2":30.254,"lo1":-89.0895,"lo2":-89.0444,"dx":0.0017,"dy":0.0017,"nx":28,"ny":28,"refTime":"2022-12-13T15:00:00:Z","depth":0,"parameterNumber":3,"parameterNumberName":"V-component_of_WINDS"},"data":[0,0,0,0,0,0,0,0,0,0,0,0,0,0,0,0,0,0,0,0,0,0,0,0,0,0,0,0,0,0,0,0,0,0,0,0,0,0,0,0,0,0,0,0,0,0,0,0,0,0,0,0,0,0,0,0,0,0,3.7681,3.7682,0,3.7806,3.7807,3.7809,3.7857,3.7857,3.7857,3.7856,3.7977,3.7981,3.7984,0,0,0,0,0,0,0,0,0,0,0,0,0,3.7479,3.7483,3.7681,3.7682,3.7684,3.7806,3.7807,3.7809,3.7857,3.7857,3.7856,3.7856,3.7976,3.798,3.7985,0,0,0,0,0,0,0,0,0,0,0,0,0,3.7581,3.7484,3.768,3.7723,3.7728,3.7805,3.7807,3.7809,3.7857,3.7857,3.7856,3.7856,3.7975,3.798,3.7985,3.8028,0,0,3.8001,3.8004,0,0,0,0,0,0,0,0,3.7576,3.7589,3.7715,3.772,3.7726,3.7816,3.7781,3.7882,3.7857,3.7808,3.7856,3.7856,3.7923,3.7933,3.7957,3.8033,3.8039,3.8002,3.8005,3.8007,3.8009,0,0,0,0,0,0,0,3.7568,3.7584,3.773,3.7717,3.7723,3.7734,3.7748,3.78,3.7867,3.7812,3.7816,3.7831,3.7926,3.7952,3.796,3.804,3.8002,3.8006,3.801,3.8012,3.8159,3.816,0,0,0,0,0,0,3.7555,3.7577,3.7726,3.7734,3.7648,3.7738,3.7754,3.7787,3.7866,3.7878,3.7831,3.7832,3.7943,3.7954,3.7965,3.8021,3.8007,3.8012,3.8015,3.8159,3.8159,3.816,0,0,0,0,0,0,3.7551,3.7568,3.7721,3.7657,3.7677,3.7742,3.7779,3.779,3.7816,3.7881,3.7892,3.7845,3.7943,3.7957,3.8013,3.8026,3.8015,3.8019,3.8158,3.8159,3.816,3.8133,0,0,0,0,0,0,3.7545,3.7566,3.7584,3.7657,3.768,3.7768,3.778,3.7793,3.7826,3.7829,3.7897,3.7908,3.7944,3.8005,3.8018,3.8033,3.8024,3.8157,3.8158,3.816,3.8133,3.8133,3.8133,0,0,0,0,0,3.7537,3.7569,3.7584,3.7602,3.7704,3.7769,3.7782,3.7825,3.7826,3.7844,3.7886,3.7906,3.8023,3.801,3.8025,3.8042,3.8156,3.8158,3.8159,3.8133,3.8133,3.8133,0,0,0,0,0,0,3.7493,3.758,3.7597,3.7654,3.7704,3.7777,3.78,3.7823,3.7872,3.7872,3.7922,3.7937,3.7988,3.802,3.8005,3.8088,3.8091,3.8095,3.8065,3.8066,3.8066,3.8057,3.8028,0,0,0,0,0,3.749,3.7537,3.761,3.7653,3.7677,3.7735,3.7764,3.7793,3.7846,3.7866,3.7912,3.7961,3.8009,3.8039,3.8087,3.8138,3.8154,3.8158,3.8158,3.8158,3.8161,3.8192,3.8195,3.8166,3.8166,3.8166,0,0,3.7484,3.7537,3.7563,3.7645,3.7687,3.7734,3.7752,3.7799,3.7834,3.7873,3.7929,3.7964,3.8022,3.8076,3.8102,3.8105,3.8173,3.816,3.8159,3.8163,3.8194,3.8197,3.8199,3.8167,3.8167,3.8167,0,0,3.7497,3.7542,3.7584,3.7627,3.7692,3.773,3.774,3.781,3.7836,3.7894,3.7925,3.7965,3.8047,3.8087,3.8118,3.8149,3.8169,3.8163,3.8163,3.8193,3.8195,3.8198,3.8209,3.8213,3.8166,3.8166,3.8166,0,3.7481,3.7554,3.7602,3.765,3.7685,3.7726,3.7768,3.7806,3.7882,3.7905,3.7907,3.8012,3.8053,3.8118,3.8126,3.815,3.8162,3.8155,3.8192,3.8194,3.8197,3.8209,3.8213,3.8165,3.8165,3.8166,3.8166,0,3.7531,3.7582,3.7607,3.7683,3.7721,3.7765,3.782,3.7852,3.7878,3.7916,3.7974,3.8026,3.8086,3.8103,3.8128,3.8172,3.8172,3.8182,3.8186,3.8198,3.821,3.8215,3.8164,3.8164,3.8164,3.8165,0,0,3.7518,3.7623,3.7631,3.7667,3.7743,3.7781,3.7828,3.7889,3.7916,3.7967,3.8007,3.8076,3.8087,3.8123,3.8152,3.8178,3.8201,3.8186,3.8188,3.8187,3.8254,3.8246,3.825,3.8215,3.8216,3.8217,3.8249,0,3.7542,3.7629,3.7675,3.7742,3.779,3.783,3.7871,3.792,3.7957,3.8001,3.8041,3.809,3.8101,3.8123,3.815,3.8192,3.8215,3.8191,3.8252,3.8253,3.8236,3.8256,3.8248,3.8275,3.8254,3.8255,3.8256,0,3.7581,3.7635,3.7708,3.778,3.7802,3.7838,3.7898,3.7941,3.7998,3.8023,3.8064,3.8094,3.8143,3.8144,3.8212,3.8195,3.8222,3.8247,3.8249,3.8256,3.8255,3.8264,3.8285,3.8289,3.8263,3.8263,3.8262,0,3.7565,3.7656,3.7712,3.7741,3.7827,3.7851,3.7887,3.7945,3.7979,3.8032,3.8055,3.8111,3.8141,3.8184,3.8228,3.8224,3.8292,3.8296,3.8314,3.8313,3.8326,3.8324,3.8352,3.8343,3.8343,3.8343,3.8343,0,3.7587,3.763,3.7707,3.7741,3.7791,3.7843,3.789,3.7929,3.798,3.8022,3.8059,3.8097,3.8153,3.8197,3.8232,3.8284,3.8297,3.8318,3.8327,3.8315,3.8312,3.8334,3.8333,3.8344,3.8344,3.8344,3.8343,0,3.7577,3.7631,3.7695,3.7772,3.7792,3.7825,3.789,3.7924,3.7964,3.8017,3.8032,3.8093,3.8148,3.8197,3.8268,3.8292,3.8345,3.8355,3.8326,3.8331,3.8347,3.8345,3.8389,3.8397,3.8382,3.8382,3.8382,0,3.7588,3.7623,3.7704,3.7737,3.7773,3.7824,3.7861,3.7913,3.7949,3.8019,3.8044,3.8103,3.8152,3.8237,3.8287,3.8342,3.8355,3.8366,3.8363,3.8351,3.8355,3.8353,3.8357,3.8366,3.8366,3.8366,3.8366,0,3.7601,3.7627,3.7679,3.7741,3.7785,3.7835,3.7887,3.791,3.7972,3.8011,3.8069,3.8108,3.8183,3.824,3.8301,3.8337,3.8361,3.8367,3.8374,3.8362,3.8344,3.8355,3.8326,3.8365,3.8365,3.8365,3.8365,3.8365,3.7603,3.7636,3.77,3.7757,3.7803,3.7851,3.7888,3.7933,3.7984,3.8051,3.8078,3.8137,3.8195,3.828,3.8316,3.8362,3.8366,3.8377,3.8379,3.8381,3.8379,3.8337,3.8373,3.8373,3.8373,3.8373,3.8374,0,3.7618,3.7662,3.7715,3.7788,3.7833,3.7856,3.7914,3.795,3.8003,3.8056,3.8105,3.8172,3.8228,3.8284,3.8342,3.8369,3.8381,3.8382,3.8381,3.8389,3.8372,3.836,3.8371,3.8371,3.8371,3.8371,3.8371,3.8371,3.7632,3.7691,3.7724,3.7805,3.7848,3.7909,3.7941,3.7985,3.8028,3.8102,3.8151,3.8187,3.8241,3.8305,3.8357,3.8372,3.8392,3.839,3.8407,3.839,3.839,3.8389,3.8379,3.8393,3.8393,3.8421,3.8421,3.8421]}]]